Stations météo

réclame
Mon MeteoGroup
Dieppe, France (7040): Température de l'air & dewpoint: 11.01.2018 01:00:00 - 17.01.2018 01:00:00 (CET)Dieppe, France (7040): Température de l'air 5cm: 11.01.2018 01:00:00 - 17.01.2018 01:00:00 (CET)Dieppe, France (7040): Vitesse du vent & gusts: 11.01.2018 01:00:00 - 17.01.2018 01:00:00 (CET)Dieppe, France (7040): Direction du vent: 11.01.2018 01:00:00 - 17.01.2018 01:00:00 (CET)Dieppe, France (7040): reduced air pressure: 11.01.2018 01:00:00 - 17.01.2018 01:00:00 (CET)Dieppe, France (7040): visibility: 11.01.2018 01:00:00 - 17.01.2018 01:00:00 (CET)Dieppe, France (7040): Quantités de précipitations: 11.01.2018 01:00:00 - 17.01.2018 01:00:00 (CET)
Date & Time tt [°C] td [°C] tt 5cm [°C] ff [km/h] ff [knt] fx [km/h] fx [knt] dd ppp [hPa] vv [km] rr [mm]
17.01.2018 01:00:00 5,9 1,4 4,0 39 21 83 45 W 999,6 - 0,0
17.01.2018 00:00:00 7,1 0,7 6,0 41 22 74 40 W 998,9 - 0,0
16.01.2018 23:00:00 6,4 2,3 4,3 35 19 67 36 W 998,4 - 0,2
16.01.2018 22:00:00 5,5 2,0 3,9 50 27 82 44 W 998,4 - 0,2
16.01.2018 21:00:00 6,3 3,5 4,4 29 16 57 31 SW 998,0 - 1,8
16.01.2018 20:00:00 5,8 3,3 5,2 20 11 51 28 SSW 998,4 - 0,0
16.01.2018 19:00:00 5,9 2,9 4,7 29 15 58 32 SW 999,1 - 0,4
16.01.2018 18:00:00 6,5 1,6 6,0 34 19 66 36 WSW 999,5 - 0,0
16.01.2018 17:00:00 8,1 2,5 7,5 33 18 66 35 W 999,9 - 0,0
16.01.2018 16:00:00 8,3 2,7 7,0 39 21 63 34 W 1000,0 - 0,2
16.01.2018 15:00:00 7,6 3,4 3,9 29 16 61 33 W 1000,1 - 4,3
16.01.2018 14:00:00 7,7 3,7 5,5 26 14 69 38 WSW 1000,3 - 0,6
16.01.2018 13:00:00 7,8 4,2 7,1 30 16 58 31 W 1000,5 10 0,0
16.01.2018 12:00:00 7,9 3,5 7,6 31 17 63 34 W 1001,0 - 0,0
16.01.2018 11:00:00 6,9 3,7 4,8 40 22 96 52 WNW 1000,6 - 1,6
16.01.2018 10:00:00 8,1 4,7 7,0 20 11 53 29 WSW 999,8 - 0,2
16.01.2018 09:00:00 8,5 2,7 7,9 37 20 70 38 W 999,5 - 0,0
16.01.2018 08:00:00 8,8 3,8 7,0 37 20 63 34 W 998,6 - 0,0
16.01.2018 07:00:00 7,6 5,1 6,6 36 19 72 39 WNW 998,1 - 0,0
16.01.2018 06:00:00 8,8 4,8 6,5 31 17 61 33 WSW 997,0 - 0,0
16.01.2018 05:00:00 7,4 5,5 6,5 32 17 67 36 WSW 997,4 - 0,8
16.01.2018 04:00:00 7,5 6,0 5,8 25 13 55 30 W 997,7 - 4,3
16.01.2018 03:00:00 7,7 5,2 6,6 36 19 59 32 WSW 998,2 - 0,4
16.01.2018 02:00:00 8,5 5,6 7,1 29 16 53 29 WSW 998,5 - 1,6
16.01.2018 01:00:00 9,0 5,4 8,2 24 13 46 25 SW 998,9 - 0,0
16.01.2018 00:00:00 8,8 5,5 8,0 23 12 58 31 SW 999,5 - 0,2
15.01.2018 23:00:00 9,0 6,4 8,2 31 17 53 28 WSW 999,3 - 0,0
15.01.2018 22:00:00 9,1 6,2 8,3 27 14 48 26 WSW 999,3 - 0,0
15.01.2018 21:00:00 9,1 6,7 8,5 28 15 59 32 W 999,1 - 0,0
15.01.2018 20:00:00 9,2 6,5 8,6 36 19 71 39 WSW 998,7 - 0,0
15.01.2018 19:00:00 9,8 5,8 9,2 46 25 77 42 WSW 997,2 - 0,0
15.01.2018 18:00:00 10,4 7,1 9,0 45 25 79 43 WSW 997,0 - 0,0
15.01.2018 17:00:00 10,9 7,8 9,4 42 23 70 38 WSW 996,5 - 0,0
15.01.2018 16:00:00 10,0 8,8 8,1 34 18 58 31 SW 996,8 6 1,1
15.01.2018 15:00:00 8,6 7,4 7,2 26 14 62 33 SSW 997,2 - 1,0
15.01.2018 14:00:00 7,8 6,6 6,6 31 17 73 39 S 998,6 - 1,8
15.01.2018 13:00:00 7,4 5,7 - 39 21 68 37 S 1000,6 7 -
15.01.2018 12:00:00 7,2 5,2 6,2 35 19 72 39 S 1002,9 - 0,0
15.01.2018 11:00:00 6,8 4,6 5,6 37 20 67 36 S 1004,8 - 0,6
15.01.2018 10:00:00 6,7 3,8 5,6 29 16 53 29 S 1006,8 12 0,2
15.01.2018 09:00:00 6,6 3,2 5,3 29 16 49 26 S 1008,3 - 0,0
15.01.2018 08:00:00 6,2 3,2 5,7 24 13 51 28 S 1010,0 - 0,0
15.01.2018 07:00:00 5,9 3,2 5,5 26 14 44 24 S 1011,1 12 0,0
15.01.2018 06:00:00 5,8 3,1 5,2 25 13 48 26 S 1012,3 - 0,0
15.01.2018 05:00:00 5,4 3,7 4,6 18 10 33 18 S 1013,3 - 0,0
15.01.2018 04:00:00 4,6 3,9 3,6 15 8 32 17 SSW 1014,2 - 0,0
15.01.2018 03:00:00 3,8 3,1 2,8 11 6 29 15 S 1015,6 - 0,0
15.01.2018 02:00:00 3,0 2,3 1,6 14 8 24 13 S 1016,5 - 0,0
15.01.2018 01:00:00 1,8 1,1 0,7 14 8 32 18 S 1017,3 - 0,0
15.01.2018 00:00:00 0,9 0,0 0,7 16 9 32 17 S 1018,1 - 0,0
14.01.2018 23:00:00 1,7 0,4 1,2 13 7 20 11 S 1018,0 - 0,0
14.01.2018 22:00:00 2,5 0,9 1,0 13 7 20 11 S 1018,3 - 0,0
14.01.2018 21:00:00 2,1 0,5 1,4 12 7 18 10 S 1018,2 - 0,0
14.01.2018 20:00:00 2,6 0,8 1,9 10 5 16 8 S 1018,2 - 0,0
14.01.2018 19:00:00 3,3 1,0 2,4 5 3 11 6 SSE 1017,6 - 0,0
14.01.2018 18:00:00 4,3 1,7 2,2 4 2 8 5 SW 1018,3 - 0,0
14.01.2018 17:00:00 5,2 1,5 4,0 2 1 6 3 SW 1017,8 - 0,0
14.01.2018 16:00:00 6,0 1,5 6,4 5 3 10 5 WNW 1017,8 - 0,0
14.01.2018 15:00:00 6,0 1,7 5,6 5 3 16 8 WSW 1017,5 - 0,0
14.01.2018 14:00:00 5,2 0,8 6,1 6 3 13 7 SW 1017,6 - 0,0
14.01.2018 13:00:00 4,6 0,0 5,1 4 2 13 7 S 1018,1 3,0 0,0
14.01.2018 12:00:00 3,7 0,2 5,1 7 4 13 7 S 1018,2 - 0,0
14.01.2018 11:00:00 2,3 -0,1 1,7 3 1 6 4 SSE 1018,1 - 0,0
14.01.2018 10:00:00 0,5 -0,8 -0,6 2 1 6 4 S 1017,9 2,5 0,0
14.01.2018 09:00:00 0,1 -1,3 -0,6 5 3 12 7 SSE 1017,6 - 0,0
14.01.2018 08:00:00 0,5 -1,3 -0,1 9 5 20 11 S 1017,3 - 0,0
14.01.2018 07:00:00 1,9 -0,7 1,0 13 7 21 12 ESE 1016,9 12 0,0
14.01.2018 06:00:00 1,8 -0,6 0,6 9 5 21 12 SE 1016,6 - 0,0
14.01.2018 05:00:00 1,9 -0,7 1,0 8 4 24 13 ENE 1016,8 - 0,0
14.01.2018 04:00:00 2,9 -0,2 1,4 11 6 23 12 E 1017,0 - 0,0
14.01.2018 03:00:00 2,8 -0,5 1,3 2 1 14 8 E 1017,1 - 0,0
14.01.2018 02:00:00 3,3 -0,3 2,5 7 4 26 14 E 1017,0 - 0,0
14.01.2018 01:00:00 3,5 0,0 2,5 8 5 21 11 E 1017,3 - 0,0
14.01.2018 00:00:00 3,5 0,0 2,6 6 3 14 8 ESE 1017,7 - 0,0
13.01.2018 23:00:00 3,8 0,0 3,2 7 4 23 12 ESE 1017,8 - 0,0
13.01.2018 22:00:00 3,9 0,6 3,1 9 5 19 10 E 1018,0 - 0,0
13.01.2018 21:00:00 3,7 0,9 1,7 8 5 16 9 E 1018,3 - 0,0
13.01.2018 20:00:00 3,5 0,7 0,8 10 5 14 8 ENE 1018,4 - 0,0
13.01.2018 19:00:00 3,5 0,5 1,8 4 2 16 9 ENE 1018,5 10 0,0
13.01.2018 18:00:00 4,4 0,5 4,0 10 5 24 13 SE 1018,8 - 0,0
13.01.2018 17:00:00 4,3 1,0 4,1 10 5 27 15 ESE 1018,8 - 0,0
13.01.2018 16:00:00 4,3 1,2 4,2 10 6 36 20 SE 1018,9 4,5 0,0
13.01.2018 15:00:00 5,6 1,7 5,7 13 7 26 14 ESE 1019,0 - 0,0
13.01.2018 14:00:00 6,0 1,9 6,2 13 7 33 18 ESE 1019,7 - 0,0
13.01.2018 13:00:00 5,8 2,1 6,0 19 10 45 24 SE 1020,0 4,5 0,0
13.01.2018 12:00:00 5,6 2,4 5,2 19 10 39 21 SE 1020,6 - 0,0
13.01.2018 11:00:00 5,0 2,2 4,7 16 9 32 18 SE 1021,1 - 0,0
13.01.2018 10:00:00 4,7 2,6 4,4 14 8 31 17 SE 1021,3 - 0,0
13.01.2018 09:00:00 4,3 3,0 3,7 11 6 27 15 SSE 1021,1 - 0,0
13.01.2018 08:00:00 3,9 3,0 2,6 12 7 27 14 SE 1021,1 - 0,0
13.01.2018 07:00:00 2,8 1,9 1,3 7 4 21 12 SE 1021,7 - 0,0
13.01.2018 06:00:00 1,7 0,7 0,3 5 3 19 10 SSE 1022,1 - 0,0
13.01.2018 05:00:00 1,8 0,5 0,4 4 2 8 5 ESE 1022,5 - 0,0
13.01.2018 04:00:00 2,1 0,6 0,9 5 3 12 7 SE 1022,8 - 0,0
13.01.2018 03:00:00 2,8 1,3 1,6 6 3 10 6 SSE 1023,5 - 0,0
13.01.2018 02:00:00 3,2 1,2 1,2 3 1 14 8 ESE 1023,6 - 0,0
13.01.2018 01:00:00 3,9 1,8 3,1 5 3 14 8 SSE 1024,4 - 0,0
13.01.2018 00:00:00 4,0 1,7 3,4 7 4 24 13 SSE 1024,9 - 0,0
12.01.2018 23:00:00 4,5 2,0 4,2 13 7 30 16 SSE 1025,4 - 0,0
12.01.2018 22:00:00 4,3 2,3 4,2 13 7 23 13 SSE 1025,7 - 0,0
12.01.2018 21:00:00 4,4 2,4 4,3 7 4 17 9 S 1026,0 - 0,0
12.01.2018 20:00:00 4,4 2,7 4,3 8 4 18 10 SE 1025,8 - 0,0
12.01.2018 19:00:00 4,3 2,6 4,3 8 4 17 9 SE 1025,8 - 0,0
12.01.2018 18:00:00 4,4 2,9 4,3 8 4 13 7 ESE 1026,1 - 0,0
12.01.2018 17:00:00 4,6 3,3 4,6 5 3 12 7 ESE 1026,0 - 0,0
12.01.2018 16:00:00 4,6 3,3 4,9 7 4 14 8 E 1026,0 - 0,0
12.01.2018 15:00:00 4,6 3,6 5,0 0 0 11 6 N 1026,3 - 0,0
12.01.2018 14:00:00 4,5 3,6 5,0 5 3 15 8 S 1026,6 - 0,0
12.01.2018 13:00:00 4,5 3,6 5,4 6 3 15 8 SSE 1026,6 - 0,0
12.01.2018 12:00:00 4,4 3,7 4,9 6 4 15 8 SE 1026,9 - 0,0
12.01.2018 11:00:00 4,2 3,5 4,3 5 3 10 6 SE 1026,8 - 0,0
12.01.2018 10:00:00 3,9 3,2 3,5 6 3 16 9 ESE 1027,1 0,9 0,0
12.01.2018 09:00:00 3,7 3,0 3,5 7 4 14 7 SE 1026,6 - 0,0
12.01.2018 08:00:00 3,7 3,1 3,5 8 4 12 6 SE 1026,7 - 0,0
12.01.2018 07:00:00 3,7 3,0 3,6 4 2 7 4 ESE 1026,7 0,3 0,0
12.01.2018 06:00:00 3,7 3,0 3,5 0 0 8 4 N 1026,7 - 0,0
12.01.2018 05:00:00 3,7 3,0 3,5 0 0 14 8 N 1026,1 - 0,0
12.01.2018 04:00:00 4,6 3,9 3,8 6 4 12 7 ENE 1025,4 - 0,0
12.01.2018 03:00:00 3,9 3,2 3,4 4 2 9 5 SE 1025,4 - 0,0
12.01.2018 02:00:00 3,9 3,2 3,6 6 4 9 5 SSE 1025,4 - 0,0
12.01.2018 01:00:00 3,7 3,0 2,8 6 3 10 6 SSE 1025,2 - 0,0
12.01.2018 00:00:00 3,1 2,4 2,6 9 5 13 7 SSE 1025,0 - 0,2
11.01.2018 23:00:00 3,7 3,0 2,8 7 4 11 6 SSE 1024,1 - 0,0
11.01.2018 22:00:00 4,6 3,9 3,9 6 3 9 5 SSE 1023,8 - 0,0
11.01.2018 21:00:00 4,9 4,2 4,1 2 1 5 3 SE 1023,6 - 0,0
11.01.2018 20:00:00 4,6 3,9 4,0 5 3 12 6 SSE 1023,0 - 0,0
11.01.2018 19:00:00 4,7 4,0 3,6 9 5 15 8 ESE 1022,1 0,3 0,0
11.01.2018 18:00:00 5,3 4,6 4,4 4 2 16 9 SE 1021,0 - 0,0
11.01.2018 17:00:00 5,7 5,0 5,8 7 4 12 6 NE 1020,5 - 0,0
11.01.2018 16:00:00 5,8 5,1 6,0 6 3 11 6 NNW 1019,8 4,0 0,0
11.01.2018 15:00:00 5,5 4,8 5,6 3 1 9 5 NNE 1019,1 - 0,0
11.01.2018 14:00:00 5,0 4,3 5,6 0 0 5 3 N 1018,3 - 0,0
11.01.2018 13:00:00 5,0 4,4 5,2 0 0 7 4 N 1018,0 0,2 0,0
11.01.2018 12:00:00 4,9 4,3 4,1 0 0 7 4 N 1017,4 - 0,0
11.01.2018 11:00:00 3,5 2,8 3,1 6 3 10 5 S 1016,6 - 0,0
11.01.2018 10:00:00 3,0 2,3 1,9 3 1 12 6 SE 1015,7 0,5 0,0
11.01.2018 09:00:00 2,7 2,0 1,8 6 4 16 8 SE 1014,5 - 0,0
11.01.2018 08:00:00 3,2 2,5 2,4 2 1 18 10 S 1013,5 - 0,0
11.01.2018 07:00:00 3,0 2,3 2,5 11 6 27 14 SSE 1012,4 0,5 0,2
11.01.2018 06:00:00 2,7 2,0 1,8 16 9 27 14 SSE 1011,6 - 0,0
11.01.2018 05:00:00 2,3 1,6 1,6 14 8 20 11 SSE 1010,7 - 0,0
11.01.2018 04:00:00 2,0 1,3 1,3 14 8 23 12 S 1010,2 - 0,0
11.01.2018 03:00:00 1,8 0,9 1,2 13 7 18 10 SSE 1009,7 - 0,0
11.01.2018 02:00:00 2,8 1,9 2,3 12 7 19 11 SSE 1009,2 - 0,0
11.01.2018 01:00:00 3,7 2,8 2,6 11 6 18 10 SSE 1008,8 - 0,0

tt = Température de l'air
td = dewpoint
tt 5cm = Température de l'air 5cm
ff = Vitesse du vent
fx = gusts
dd = Direction du vent
ppp = reduced air pressure
vv = visibility
rr = Quantités de précipitations

stations d'obs. à proximité